Regional Weather Roundup
Issued by NWS Glasgow, MT

Home | Current Version | Previous Version | Text Only | Print | Product List | Glossary On
Versions: 1 2 3 4 5 6 7 8 9 10 11 12 13 14 15 16 17 18 19 20 21 22 23 24 25 26 27 28 29 30 31 32 33 34 35 36 37 38 39 40 41 42 43 44 45 46 47 48 49 50
843
ASUS45 KGGW 251415
RWRGGW
HOURLY REGIONAL WEATHER ROUNDUP FOR NORTHEAST MONTANA
NATIONAL WEATHER SERVICE GLASGOW MONTANA
800 AM MDT TUE JUL 25 2017

NOTE: "FAIR" INDICATES FEW OR NO CLOUDS BELOW 12,000 FEET WITH NO
SIGNIFICANT WEATHER AND/OR OBSTRUCTIONS TO VISISBILITY.

NORTHEAST MONTANA


CITY           SKY/WX    TMP DP  RH WIND       PRES   REMARKS
GLASGOW        SUNNY     62  46  55 NW8       30.06R
PLENTYWOOD       N/A     61  44  53 NW13G23     N/A
WOLF POINT     CLOUDY    67  47  48 NW6       30.03R
JORDAN           N/A     66  40  38 N10       30.07R
WINNETT          N/A     65  37  35 NW7G16      N/A
SIDNEY         SUNNY     67  43  41 N10       30.02R
GLENDIVE       SUNNY     69  40  34 NE14      30.04R
MALTA            N/A     62  45  53 W3          N/A
SCOBEY           N/A     61  43  51 W10G16    30.03

FORT PECK REPORTS


CITY           SKY/WX    TMP DP  RH WIND       PRES   REMARKS
FORT PECK        N/A     62  46  55 NW9         N/A
THE PINES        N/A     62  45  53 N5          N/A

SOUTHEAST MONTANA


CITY           SKY/WX    TMP DP  RH WIND       PRES   REMARKS
BILLINGS       CLOUDY    65  36  34 N14       30.14R
MILES CITY     MOSUNNY   71  36  27 NE22G29   30.04R
BAKER          MOSUNNY   70  43  37 NE20G28   30.02R
LIVINGSTON     CLOUDY    63  40  42 E16       30.16R

CENTRAL MONTANA


CITY           SKY/WX    TMP DP  RH WIND       PRES   REMARKS
HAVRE          SUNNY     58  42  55 W5        30.14R
LEWISTOWN      SUNNY     58  37  45 CALM      30.17R
GREAT FALLS    MOSUNNY   56  39  53 NW6       30.18S
CUT BANK       SUNNY     53  42  66 NW5       30.17S
HELENA         PTSUNNY   60  40  47 W9        30.16R
BUTTE          MOSUNNY   53  36  52 S5        30.19R
BOZEMAN        CLOUDY    61  46  57 SW8       30.13R

WESTERN MONTANA


CITY           SKY/WX    TMP DP  RH WIND       PRES   REMARKS
MISSOULA       SUNNY     59  37  44 CALM      30.07R
KALISPELL      NOT AVBL

NORTH DAKOTA


CITY           SKY/WX    TMP DP  RH WIND       PRES   REMARKS
WILLISTON      CLOUDY    69  44  40 N13       30.00R
DICKINSON      MOSUNNY   71  51  49 N13       30.00R
MINOT          CLOUDY    68  46  45 W9        29.94R
BISMARCK       CLOUDY    71  67  87 N8        29.93F

SOUTHERN SASKATCHEWAN


CITY           SKY/WX    TMP DP  RH WIND       PRES   REMARKS
REGINA         PTSUNNY   59  50  72 W17G25    29.94R
MOOSE JAW      MOSUNNY   61  50  67 W21       29.98R
ESTEVAN        MOSUNNY   61  50  67 NW17      29.96R
SWIFT CURRENT  SUNNY     57  48  72 W16G23    30.04R





USA.gov is the U.S. government's official web portal to all federal, state and local government web resources and services.